RH
8 9 11 13 16 17 20 22 22 21 20 33 35 32 28 25 24 22 20 16 14 12 12 11 11 18 43 64 60 72 78 88 92 94 86 90 90 92
10 11 14 16 19 21 23 28 29 31 27 21 34 34 37 35 28 22 18 16 15 15 16 18 19 17 14 11 10 25 73 86 91 88 83 78 84 78
7 9 12 16 19 22 27 30 35 43 46 27 27 26 27 24 21 20 18 17 16 18 18 18 18 17 16 15 16 16 13 12 33 71 82 76 71 75
6 6 8 10 13 20 27 34 40 47 58 47 32 28 28 24 21 18 16 16 15 14 14 15 16 16 16 15 14 15 18 19 16 12 13 41 68 62
7 7 8 10 11 14 18 23 30 36 48 56 35 28 22 20 15 13 11 11 11 12 12 13 14 14 14 15 16 15 14 17 20 20 20 17 11 22
11 11 12 14 14 15 17 18 24 33 38 45 45 32 24 17 17 17 9 9 7 7 6 7 8 9 10 12 13 15 17 18 20 22 23 24 25 24
11 12 16 22 23 25 40 41 44 47 47 45 47 48 41 38 36 34 26 14 8 7 8 9 9 9 9 10 11 12 13 16 19 21 21 24 26 27
14 13 17 23 35 49 66 93 95 91 87 87 90 86 78 84 74 53 41 40 51 23 22 12 16 12 14 13 13 13 14 15 15 16 21 25 25 25
17 13 15 24 36 43 55 67 68 67 77 83 86 84 76 64 57 71 73 86 84 82 67 24 33 20 23 22 22 22 20 18 19 20 20 21 24 25
20 16 19 29 42 52 54 61 64 59 56 60 62 69 77 88 97 100 100 99 96 87 69 47 44 34 35 30 30 29 28 28 28 28 28 26 25 26
21 16 22 33 42 58 98 97 90 74 68 75 99 98 93 99 95 99 80 83 86 65 54 66 61 51 39 34 32 36 39 46 47 47 45 44 42 39
21 18 24 35 44 100 100 94 81 74 80 76 72 74 80 74 71 74 78 81 84 100 81 73 64 58 62 52 75 59 49 53 52 53 53 54 57 58
20 18 24 31 32 42 98 97 91 91 100 87 76 74 74 73 72 72 73 77 78 76 60 74 81 61 74 81 76 50 47 45 49 59 72 68 56 59
42 36 29 21 21 56 52 79 100 72 74 77 70 72 64 59 55 58 63 70 73 71 63 67 79 73 75 81 84 66 58 48 54 74 86 91 100 97
73 47 32 25 19 24 23 22 24 23 23 28 38 32 28 19 19 26 30 38 49 55 60 65 71 73 81 90 89 82 61 57 59 70 93 93 98 88
53 48 35 21 20 17 17 18 18 18 18 18 22 20 16 12 12 16 15 17 18 12 19 34 60 76 80 77 80 68 63 79 67 68 83 100 99 94
43 28 18 14 14 14 19 23 26 28 27 28 28 21 17 15 14 17 20 19 24 21 11 18 37 67 79 85 87 65 71 77 78 95 99 99 100 100
32 19 13 13 15 20 25 30 32 26 30 27 23 22 24 22 18 18 24 27 27 25 27 28 38 58 72 74 76 79 91 94 83 81 89 94 99 99
23 15 14 17 20 24 31 35 32 34 33 28 25 23 26 23 22 24 30 40 36 37 33 50 66 94 100 100 79 62 86 86 85 84 77 78 82 100
18 17 20 22 28 36 44 48 48 43 32 26 24 26 29 30 28 32 40 46 51 61 48 47 68 95 100 100 100 73 75 100 96 90 82 81 80 80
20 22 25 28 35 45 56 64 62 52 36 28 27 32 37 36 33 37 44 59 68 59 54 51 64 78 93 98 100 89 73 85 98 96 91 100 99 92
26 27 29 32 39 47 67 79 77 68 44 37 36 37 39 41 38 38 47 57 58 59 61 63 59 66 86 99 93 86 76 75 83 95 100 100 100 100
30 32 32 34 38 41 65 83 86 84 61 69 80 82 74 43 36 37 44 53 67 63 63 62 67 65 80 89 90 81 79 80 91 86 81 96 100 100
Wind_Speed
10 11 11 11 11 11 12 12 11 6 7 9 11 14 17 17 18 18 20 19 20 21 23 23 25 28 31 32 33 35 36 36 37 35 35 34 33 31
10 10 10 10 11 11 11 12 12 13 14 12 16 18 18 20 21 22 23 24 25 25 26 26 27 27 29 30 31 34 37 39 40 38 37 37 36 39
9 10 11 11 11 12 13 13 13 15 20 23 24 24 26 27 27 26 26 27 27 27 27 28 30 29 29 30 31 32 34 37 40 42 42 41 41 40
9 10 11 11 12 13 13 13 15 15 20 24 25 25 27 26 27 27 26 27 28 28 29 30 31 32 33 33 34 35 35 35 36 38 42 44 45 44
9 10 11 12 12 14 15 16 17 18 20 23 27 27 28 28 30 30 29 29 28 28 29 29 30 32 33 34 36 37 38 38 38 38 38 39 42 47
9 10 11 12 13 14 16 16 18 20 21 23 26 29 29 30 31 32 32 30 32 31 30 30 32 33 34 35 37 37 37 39 40 41 41 40 40 42
11 11 11 12 13 13 14 15 17 20 22 24 27 28 28 29 30 31 33 34 35 34 32 32 33 33 33 34 36 37 39 40 40 41 44 45 46 44
12 12 13 13 12 12 12 12 14 17 19 22 25 27 28 26 27 31 34 35 37 35 34 40 37 40 38 36 35 36 38 41 43 45 45 43 45 49
13 14 14 13 14 15 17 18 19 19 20 21 26 28 31 31 30 29 30 32 35 36 38 47 40 42 39 39 37 36 37 38 39 42 45 46 47 48
14 15 15 15 15 17 18 18 20 22 22 23 25 26 25 23 23 25 30 35 38 36 30 45 40 40 37 38 39 38 36 36 36 37 39 43 46 47
15 15 16 17 17 13 14 19 22 24 22 19 17 20 23 23 23 26 28 29 32 34 28 28 32 42 46 45 33 27 23 22 24 26 26 27 30 37
16 16 16 17 17 12 16 21 22 20 20 21 20 19 21 21 18 18 20 24 26 23 11 28 39 37 38 37 10 14 31 37 41 44 46 46 43 36
18 18 17 16 17 16 13 15 18 17 18 21 21 20 19 18 17 18 20 22 24 28 27 27 34 35 35 45 45 45 43 42 42 43 43 43 39 36
19 19 18 15 14 12 15 13 12 16 18 19 18 16 17 17 18 18 19 22 23 28 27 26 34 33 36 46 50 47 48 47 44 43 41 43 40 38
21 19 15 12 13 12 12 13 12 11 13 14 15 16 17 18 20 20 19 21 23 24 24 24 28 31 32 39 48 48 51 51 45 33 37 41 42 40
18 16 14 13 12 12 12 12 12 12 13 14 15 17 18 19 19 20 22 22 25 23 21 22 24 27 34 37 41 49 47 47 47 44 38 44 44 45
18 14 13 12 11 11 10 10 10 10 10 11 13 16 17 18 19 19 20 22 25 27 27 25 25 28 31 35 41 42 42 43 45 41 31 41 45 45
15 13 12 10 9 8 7 7 8 7 6 8 11 13 15 17 19 18 19 21 24 26 28 29 31 34 34 35 30 39 41 44 46 42 36 39 47 45
15 12 10 8 7 6 5 4 4 4 6 9 12 12 13 15 16 17 18 21 22 24 26 30 31 30 33 38 43 36 41 46 43 40 36 42 49 43
14 11 9 8 6 4 3 1 2 5 7 10 10 11 13 16 16 17 18 21 23 26 29 28 30 30 30 39 45 45 37 39 41 42 41 40 44 41
13 11 10 8 6 5 3 1 2 7 12 12 11 13 16 18 18 18 19 20 23 26 30 30 29 27 29 33 37 43 42 34 29 34 39 43 41 38
13 12 10 8 7 5 4 2 1 6 11 14 17 19 19 19 20 21 21 23 25 27 29 30 29 31 29 30 35 40 42 39 30 24 24 27 34 34
14 12 10 9 7 6 5 3 2 4 10 14 19 23 26 24 22 22 22 23 26 28 28 31 31 30 28 28 30 36 40 40 37 33 25 20 25 36
Wind_Direction
240 240 240 242 245 246 252 256 255 253 248 226 232 244 249 254 258 261 265 266 270 271 274 274 270 267 264 261 263 260 255 261 258 257 260 259 259 259
244 246 247 246 246 248 250 252 255 255 250 245 238 247 254 259 265 267 269 272 273 272 272 273 272 270 270 269 267 262 257 256 258 258 258 258 258 255
250 252 254 255 255 254 253 254 254 256 262 262 264 265 266 269 269 273 276 274 273 273 271 271 273 273 272 271 271 268 264 260 257 256 256 257 259 258
260 259 258 258 259 260 260 260 259 259 266 274 276 278 281 282 286 284 280 278 278 274 270 266 267 268 269 270 271 271 270 267 263 261 258 256 256 256
266 265 265 265 263 264 265 263 266 266 268 275 281 284 288 292 291 289 290 289 285 282 280 277 272 269 267 264 263 264 266 268 268 265 263 262 259 255
275 273 272 272 270 266 266 267 268 270 274 277 282 286 290 293 295 299 296 294 293 291 287 283 279 275 272 271 269 269 265 264 265 267 266 262 260 258
277 275 274 272 271 272 274 274 275 277 278 282 285 290 293 296 300 302 300 300 298 299 297 293 291 285 280 277 276 273 270 266 262 260 260 262 264 260
280 279 276 276 278 274 267 268 272 283 289 290 291 291 295 300 298 300 302 306 311 302 302 295 298 295 296 295 287 278 272 268 266 262 260 259 259 261
288 285 281 277 273 271 273 273 272 269 267 275 279 282 289 293 298 302 304 303 300 301 305 301 306 303 305 298 293 289 285 280 275 270 267 263 261 260
289 286 281 279 279 280 281 281 278 279 282 279 278 284 289 294 294 291 290 290 293 297 303 299 309 304 303 299 301 302 294 287 281 275 272 268 265 262
284 282 279 278 279 286 287 279 281 283 284 281 274 272 276 280 281 285 287 291 296 301 310 295 307 308 307 304 308 303 299 296 289 284 279 277 279 272
280 278 277 277 274 273 265 271 280 283 289 286 283 287 289 289 287 284 288 290 297 310 304 298 301 313 315 311 291 295 297 290 284 280 278 277 278 275
280 280 284 281 274 272 274 272 274 288 284 282 291 291 290 291 290 286 287 289 289 285 304 301 299 306 298 300 303 304 307 306 306 301 295 291 284 274
278 285 288 281 277 267 271 270 266 271 282 288 290 294 294 298 297 295 292 290 289 293 300 296 294 300 299 299 300 306 310 308 308 303 293 288 283 281
270 279 281 278 277 281 277 282 289 288 288 290 293 298 303 305 304 301 296 298 295 296 300 299 296 299 297 297 299 305 311 310 308 303 294 283 278 283
267 279 273 274 276 279 283 289 292 297 300 302 304 305 308 308 306 307 308 309 307 306 309 311 310 305 302 301 304 306 309 302 308 303 295 276 276 275
261 261 262 264 270 278 282 285 290 299 305 308 310 311 311 312 313 315 315 315 313 316 315 319 319 314 308 308 305 311 311 308 311 305 302 279 271 269
256 254 253 258 264 269 270 278 294 305 310 322 327 325 319 319 320 322 320 319 318 319 321 326 327 323 318 315 318 318 306 301 312 306 299 280 278 271
246 242 242 248 257 259 263 276 304 313 325 333 333 335 330 330 329 328 327 326 323 325 329 332 331 331 313 305 326 331 313 316 316 308 301 278 275 273
227 225 228 233 233 231 231 251 3 6 351 347 346 347 349 343 340 336 336 335 334 336 331 337 341 333 318 311 310 326 331 318 318 312 306 296 289 265
215 213 216 217 215 212 215 254 22 17 16 9 8 12 5 354 350 344 342 344 340 338 338 342 344 338 331 330 319 326 334 332 321 308 296 289 291 286
218 213 212 212 212 216 213 199 57 27 26 30 29 22 10 360 356 351 351 347 348 345 341 343 349 347 342 337 333 336 340 338 331 313 297 285 283 274
220 215 214 214 218 228 231 247 296 25 31 34 29 21 14 5 360 356 353 353 350 349 346 349 352 351 349 346 345 346 348 348 348 342 333 312 294 287